Regional Weather Roundup
Issued by NWS Charleston, SC

Current Version | Previous Version | Text Only | Print | Product List | Glossary Off
Versions: 1 2 3 4 5 6 7 8 9 10 11 12 13 14 15 16 17 18 19 20 21 22 23 24 25 26 27 28 29 30 31 32 33 34 35 36 37 38 39 40 41 42 43 44 45 46 47 48 49 50

000
ASUS42 KCHS 270010
RWRCHS

REGIONAL WEATHER ROUNDUP
NATIONAL WEATHER SERVICE CHARLESTON SC
800 PM EDT TUE AUG 26 2014

NOTE: "FAIR" INDICATES FEW OR NO CLOUDS BELOW 12,000 FEET WITH NO
SIGNIFICANT WEATHER AND/OR OBSTRUCTIONS TO VISIBILITY.

NOT ALL STATIONS ARE QUALITY CONTROLLED BY THE NATIONAL
WEATHER SERVICE. USE DATA WITH CAUTION...ESPECIALLY
DEWPOINT OBSERVATIONS.

SCZ027-030-031-034>040-042>050-270100-
...SOUTH CAROLINA...

CITY           SKY/WX    TMP DP  RH WIND       PRES   REMARKS
N CHARLESTON   PTCLDY    81  63  54 N7        30.01S
6HR MIN TEMP:  81; 6HR MAX TEMP:  89;

WATERFRONT PRK   N/A     81 N/A N/A NE10        N/A
FORT JOHNSON   NOT AVBL
MOUNT PLEASANT FAIR      79  70  73 CALM      30.01S
JOHNS ISLAND   CLEAR     79  70  73 E5        30.01S
PINOPOLIS        N/A     84  63  48 NE10      29.94S
MONCKS CORNER  NOT AVBL
SUMMERVILLE    FAIR      77  68  73 CALM      30.03R
BEAUFORT MCAS  PTCLDY    82  62  50 E3        30.01S
6HR MIN TEMP:  81; 6HR MAX TEMP:  90;

BEAUFORT ARPT  FAIR      81  70  69 E5        30.01S
HILTON HEAD IS PTCLDY    81  70  69 NE8       30.02S
GEORGETOWN     NOT AVBL
WALTERBORO     CLEAR     81  59  47 CALM      30.03R
ORANGEBURG     PTCLDY    81  63  54 NE5       30.04R
6HR MIN TEMP:  81; 6HR MAX TEMP:  88;

BARNWELL       FAIR      82  64  54 E6        30.03S
AIKEN          FAIR      81  63  54 N5        30.08S
MANNING        FAIR      77  68  73 CALM      30.03S
KINGSTREE      NOT AVBL
COLUMBIA       PTCLDY    84  59  42 N6        30.04R
6HR MIN TEMP:  84; 6HR MAX TEMP:  90;

SUMTER         CLEAR     77  62  60 NE5       30.03R
6HR MIN TEMP:  77; 6HR MAX TEMP:  88;

FLORENCE       CLEAR     79  60  52 NE5       30.04S
6HR MIN TEMP:  79; 6HR MAX TEMP:  88;

MYRTLE BEACH   PTCLDY    79  66  65 NE12      30.01F
N MYRTLE BEACH NOT AVBL

$$

GAZ063-065-086>088-099>101-113>116-118-119-134-136>141-150-270100-
...GEORGIA...

CITY           SKY/WX    TMP DP  RH WIND       PRES   REMARKS
SAVANNAH ARPT  PTCLDY    82  69  64 E6        30.01R
6HR MIN TEMP:  82; 6HR MAX TEMP:  91;

HUNTER AAF     PTCLDY    80  70  72 E7        29.99S
6HR MIN TEMP:  80; 6HR MAX TEMP:  89;

FORT STEWART   CLEAR     82  65  55 NE5       29.99S
6HR MIN TEMP:  82; 6HR MAX TEMP:  91;

STATESBORO     NOT AVBL
SYLVANIA       CLEAR     80  69  70 E5        30.03R
CLAXTON        NOT AVBL
THOMSON        PTCLDY    81  71  71 CALM      30.08S
AUGUSTA-BUSH   PTCLDY    81  67  62 E3        30.01S
6HR MIN TEMP:  81; 6HR MAX TEMP:  91;

AUGUSTA-DANIEL CLEAR     86  59  39 NE7       30.04R
SWAINSBORO     FAIR      86  68  54 CALM      30.03S
VIDALIA          N/A     82  66  57 NE3       30.02R
ALMA           CLEAR     83  65  54 CALM      29.99S
6HR MIN TEMP:  83; 6HR MAX TEMP:  91;

WAYCROSS       CLEAR     86  68  54 SE6       29.99S HX  90
JESUP            N/A     84  66  54 E3        30.00R
BRUNSWICK      CLEAR     81  70  69 NE6       30.00S
SAINT SIMONS   PTCLDY    80  70  71 NE10      30.00R
6HR MIN TEMP:  79; 6HR MAX TEMP:  84;


$$

SCZ027-028-034-036>038-045-046-048>050-GAZ119-141-270100-
...LAKE AND SUPPLEMENTAL COASTAL OBSERVATIONS...

STATION/POSITION TIME  TEMP    WIND        PRES    WAVE   SWELL
                       AIR SEA DIR/SP/G            HT/PER HT/PER/DIR
                 (UTC) (F)     (DEG/KT/KT) (MB)    (FT/S) (FT/S/D)
UPR LAKE MARION  NOT AVBL
WINYAH BAY       2300   82      50/ 10     1016.0S
LAKE MURRAY      2300   83      70/  5/ 10 1016.6R
ACE BASIN NERRS  2300   84      80/  3     1016.0S
FORT PULASKI     0000   81      60/ 13/ 16 1016.3S
SAPELO ISLAND    2300   82      70/  8     1016.0S

$$

ANZ835-935-AMZ111-154-330-350-352-354-374-450-454-472-270100-
...C-MAN AND BUOY OBSERVATIONS...

STATION/POSITION TIME  TEMP    WIND        PRES    WAVE   SWELL
                       AIR SEA DIR/SP/G            HT/PER HT/PER/DIR
                 (UTC) (F)     (DEG/KT/KT) (MB)    (FT/S) (FT/S/D)
FOLLY BEACH CMAN 2300   81      60/ 14/ 16 1016.5S
BUOY 41004       0000   80 82   20/ 19/ 23 1014.4S   7/12   5/12
BUOY 41008       0000   81 84   50/ 17/ 19 1015.1F   5/ 6   3/110/ 8
5E ST. MARYS GA  0000      83                N/A     7/ 6   2/100/11
FRYING PAN BUOY  NOT AVBL
BUOY 41025       0000   77      10/ 19/ 25 1015.4R   9/11   7/ 70/11
CAPE LOOKOUT NC  2300   77      20/ 16/ 21 1016.3F
BUOY 41002       NOT AVBL
BUOY 41010       0000   83 85   30/ 19/ 23 1011.3S   9/ 9   7/ 50/ 9
BUOY 41012       NOT AVBL
ST AUGUSTINE FL  0000   81      30/ 21/ 23 1015.1S
CAPERS NEARSHORE 2300   81      70/ 14/ 17   N/A
FRIPP NEARSHORE  NOT AVBL


$$


USA.gov is the U.S. government's official web portal to all federal, state and local government web resources and services.